weather.gov     
National Weather Service

Regional Weather Roundup
NWS Homepage
This page is being discontinued on March 12, 2014.
The same data is available at this site. Please update your bookmarks.
Thank you, and we apologize for the inconvenience.
Please send an email to SR-SRH.Webmaster@noaa.gov with any concerns.


Current Version
Previous Version:    01  02  03  04  05  06  07  08  09  10  11  12  13  14  15  16  17  18  19  20  21  22  23  24  25  26  27  28  29  30  
   31  32  33  34  35  36  37  38  39  40  41  42  43  44  45  46  47  48  49  50  51  52  53  54  55  56  57  58  59  60  
[Printable]
489
ASUS44 KFWD 191415
RWRTX
NORTH TEXAS HOURLY WEATHER ROUNDUP
NATIONAL WEATHER SERVICE FORT WORTH TX
900 AM CDT SAT APR 19 2014

NOTE: "FAIR" INDICATES FEW OR NO CLOUDS BELOW 12,000 FEET WITH NO
SIGNIFICANT WEATHER AND/OR OBSTRUCTIONS TO VISIBILITY.

TXZ118-119-191500-
DALLAS/FORT WORTH METROPLEX

CITY           SKY/WX    TMP DP  RH WIND       PRES   REMARKS
DFW AIRPORT    MOSUNNY   65  55  70 S6        30.18R
DALLAS LOVE    PTSUNNY   64  52  64 S9        30.19R
FTW MEACHAM    SUNNY     62  52  69 SE6       30.18R
DAL-EXECUTIVE  SUNNY     63  54  72 SE6       30.19R
FTW-ALLIANCE   MOSUNNY   62  52  69 S9        30.18R
FTW-NAS-JRB    MOSUNNY   63  49  60 CALM      30.23R
FTW-SPINKS     SUNNY     63  54  72 S8        30.20R
ARLINGTON      SUNNY     63  54  72 S8        30.19R
GRAND PRAIRIE  SUNNY     64  54  68 S7        30.22R
MESQUITE       SUNNY     63  55  77 SE6       30.20R
LANCASTER      SUNNY     59  52  75 SE5       30.20S
$$

TXZ091>094-102>105-117-120-121-131>134-191500-
NORTH CENTRAL TEXAS

CITY           SKY/WX    TMP DP  RH WIND       PRES   REMARKS
SHRMAN/DENISON SUNNY     62  52  71 S8        30.21R
GAINESVILLE    SUNNY     59  53  79 SE7       30.21R
BOWIE          SUNNY     59  50  72 CALM      30.18S
BRIDGEPORT     SUNNY     58  50  74 SE5       30.19R
DECATUR        SUNNY     61  49  65 SE10      30.18R
DENTON         SUNNY     59  51  75 SE5       30.19R
MCKINNEY       SUNNY     61  54  77 CALM      30.20R
GREENVILLE     SUNNY     61  54  77 SE5       30.21R
ROCKWALL       SUNNY     65  55  71 SE3       30.19R
TERRELL        SUNNY     63  57  81 SE8       30.20R
WAXAHACHIE     MOSUNNY   60  52  75 S3        30.20S
CLEBURNE       MOSUNNY   61  55  82 SE7       30.20R
GRANBURY       MOSUNNY   60  53  78 E6        30.19S
$$

TXZ083>090-098>101-113>116-127>130-139>142-154-155-191500-
WESTERN NORTH TEXAS

CITY           SKY/WX    TMP DP  RH WIND       PRES   REMARKS
WICHITA FALLS  SUNNY     63  49  60 S13       30.15R
WF-KICKAPOO    SUNNY     62  49  63 SE13      30.17R
VERNON         SUNNY     59  52  77 S6        30.17R
ABILENE        MOSUNNY   62  52  69 S12       30.15R
ABILENE-DYESS  MOSUNNY   63  52  67 S12       30.14R
BRECKENRIDGE   MOSUNNY   65  51  58 S10       30.16R
GRAHAM         SUNNY     64  49  58 SE12      30.15R
MINERAL WELLS  SUNNY     60  51  72 SE8       30.16R
STEPHENVILLE   MOSUNNY   57  51  79 S6        30.21R
COMANCHE       MOSUNNY   60  54  80 SE5       30.17R
BROWNWOOD      MOSUNNY   63  54  72 S8        30.17S
COLEMAN        SUNNY     62  52  70 S8        30.16S
BRADY          SUNNY     61  54  77 SE8       30.16R
$$

TXZ143>147-156>162-174-175-191500-
CENTRAL TEXAS

CITY           SKY/WX    TMP DP  RH WIND       PRES   REMARKS
WACO           MOSUNNY   59  54  83 CALM      30.18R
WACO-TSTC      SUNNY     61  55  82 SE5       30.19R
WACO-MCGREGOR    N/A     57  50  77 CALM      30.20R
HILLSBORO      MOSUNNY   64  55  72 SE9       30.19R
CORSICANA      SUNNY     64  55  72 SE9       30.20R
MEXIA          SUNNY     62  56  82 SE6       30.19R
HEARNE         MOSUNNY   61  56  84 E3        30.20R
CAMERON        MOSUNNY   58  54  85 CALM      30.19R
TEMPLE         MOSUNNY   61  54  77 E3        30.21R
KILLEEN        MOSUNNY   63  54  72 SE5       30.17R
KILLEEN-SKYLRK SUNNY     63  54  72 SE3       30.15F
FORT HOOD      SUNNY     66  54  65 CALM      30.17R
GATESVILLE     SUNNY     61  54  77 CALM      30.20R
HAMILTON       SUNNY     61  54  75 S6        30.18R
LAMPASAS       SUNNY     60  55  83 CALM      30.17R
$$

TXZ095>097-106>112-122>126-135>138-148>153-164>167-191500-
EAST TEXAS

CITY           SKY/WX    TMP DP  RH WIND       PRES   REMARKS
PARIS          SUNNY     61  52  72 E7        30.23R
SULPHUR SPRNGS SUNNY     61  55  80 E3        30.23R
CLARKSVILLE    SUNNY     62  52  71 CALM      30.22R
MOUNT PLEASANT SUNNY     59  55  87 CALM      30.23R
GILMER         SUNNY     63  57  82 CALM      30.23R HAZE
MINEOLA        SUNNY     59  57  94 E3        30.21S
TYLER          SUNNY     65  53  65 SE8       30.20R
LONGVIEW       SUNNY     61  54  77 E3        30.20R
MARSHALL       SUNNY     63  56  78 CALM      30.23R
ATHENS         SUNNY     59  54  82 SE3       30.19S
PALESTINE      SUNNY     64  53  69 SE5       30.22R HAZE
JACKSONVILLE   SUNNY     62  53  71 SE3       30.22R
HENDERSON      SUNNY     64  53  67 E3        30.22R
NACOGDOCHES    SUNNY     63  54  72 SE7       30.21R
LUFKIN         MOSUNNY   65  56  72 E10       30.20R
$$

SUPPLEMENTAL OBSERVATIONS (CENTRAL)

CITY           SKY/WX    TMP DP  RH WIND       PRES   REMARKS
LAKE TEXOMA      N/A     55  52  88 E3          N/A
CADDO GRASSLND   N/A     63  54  72 S5          N/A
PAT MAYSE LAKE   N/A     59  50  72 E1          N/A
GREENVILLE       N/A     63  54  72 SE6         N/A
CEDAR HILL       N/A     66  54  63 SE10        N/A
MCGREGOR         N/A     64  55  72 CALM        N/A
$$

SUPPLEMENTAL OBSERVATIONS (WEST)

CITY           SKY/WX    TMP DP  RH WIND       PRES   REMARKS
MILLERS CREEK    N/A     64  50  59 S12         N/A
LBJ GRASSLAND    N/A     64  50  59 SE9         N/A
HAMBY            N/A     63  52  67 S13         N/A
IVIE RESERVOIR   N/A     63  52  67 SE7         N/A
COLORADO BEND    N/A     64  54  68 S7          N/A
$$

SUPPLEMENTAL OBSERVATIONS (EAST)

CITY           SKY/WX    TMP DP  RH WIND       PRES   REMARKS
TEXARKANA        N/A     63  54  72 S2          N/A
LINDEN           N/A     64  55  72 E2          N/A
CADDO LAKE       N/A     66  55  68 E2          N/A
LUFKIN           N/A     64  55  72 MISG        N/A
$$

SUPPLEMENTAL OBSERVATIONS ARE A COLLECTION OF AUTOMATED INSTRUMENTS
THAT ARE MAINTAINED BY A VARIETY OF FEDERAL AND STATE AGENCIES.
CERTAIN ELEMENTS...SUCH AS HUMIDITY VALUES AND SUSTAINED WIND
SPEEDS...MAY BE APPROXIMATED.





U.S. Dept. of Commerce
NOAA National Weather Service
1325 East West Highway
Silver Spring, MD 20910
E-mail: w-nws.webmaster@noaa.gov
Page last modified: May 16, 2007
NATIONAL WEATHER SERVICE: for Safety, for Work, for Fun - FOR LIFE